KE9LZ-9 Weather Reports


time (UTC)temp
C
wind
direction
speed
KPH
gust
KPH
rain 1hr
cm
rain 24hr
cm
rain mn
cm
humidity
%
barometer
mb
20260906133004 18 1 0.0 3.2 0.00 0.00 0.00 90 1021.9
20260906131004 15 15 1.6 3.2 0.00 0.00 0.00 99 1022.0
20260906130004 15 346 0.0 3.2 0.00 0.00 0.00 99 1021.8
20260906125003 15 320 0.0 3.2 0.00 0.00 0.00 99 1021.8
20260906124004 12 9 1.6 8.0 0.00 0.00 0.00 99 1021.8
20260906123004 12 57 1.6 3.2 0.00 0.00 0.00 99 1021.8
20260906120004 11 3 1.6 3.2 0.00 0.00 0.00 99 1021.7
20260906115004 11 349 1.6 3.2 0.00 0.00 0.00 99 1021.7
20260906114004 10 12 0.0 8.0 0.00 0.00 0.00 99 1021.4
20260906113003 11 18 1.6 4.8 0.00 0.00 0.00 99 1021.4
20260906112004 11 28 0.0 3.2 0.00 0.00 0.00 99 1021.2
20260906111004 11 27 1.6 3.2 0.00 0.00 0.00 99 1021.2
20260906110004 11 2 1.6 3.2 0.00 0.00 0.00 99 1021.0
20260906105004 11 351 1.6 3.2 0.00 0.00 0.00 99 1020.9
20260906103004 11 21 1.6 3.2 0.00 0.00 0.00 99 1021.0
20260906101004 11 358 1.6 3.2 0.00 0.00 0.00 99 1020.9
20260906095004 11 352 1.6 1.6 0.00 0.00 0.00 99 1020.9
20260906094004 11 1 0.0 1.6 0.00 0.00 0.00 99 1020.7
20260906093003 11 351 0.0 3.2 0.00 0.00 0.00 99 1020.7
20260906092004 11 9 1.6 3.2 0.00 0.00 0.00 99 1020.6
20260906091004 12 24 1.6 3.2 0.00 0.00 0.00 99 1020.8
20260906085003 12 45 0.0 1.6 0.00 0.00 0.00 99 1020.8
20260906083003 12 50 0.0 3.2 0.00 0.00 0.00 99 1020.8
20260906081003 12 18 1.6 3.2 0.00 0.00 0.00 99 1020.4
20260906080004 12 18 0.0 1.6 0.00 0.00 0.00 99 1020.3
20260906075004 12 23 1.6 1.6 0.00 0.00 0.00 99 1020.3
20260906074004 12 355 1.6 3.2 0.00 0.00 0.00 99 1020.5
20260906073003 12 356 0.0 1.6 0.00 0.00 0.00 99 1020.4
20260906072004 12 11 0.0 1.6 0.00 0.00 0.00 99 1020.4
20260906071004 12 14 1.6 1.6 0.00 0.00 0.00 99 1020.4
20260906070004 12 336 1.6 1.6 0.00 0.00 0.00 99 1020.3
20260906065004 12 17 1.6 1.6 0.00 0.00 0.00 99 1020.5
20260906064004 12 14 1.6 3.2 0.00 0.00 0.00 99 1020.5
20260906062004 12 339 1.6 3.2 0.00 0.00 0.00 99 1020.5
20260906061004 13 2 1.6 3.2 0.00 0.00 0.00 99 1020.4
20260906060004 13 335 1.6 3.2 0.00 0.00 0.00 99 1020.3
20260906055004 13 330 1.6 1.6 0.00 0.00 0.00 99 1020.1
20260906054003 13 322 0.0 1.6 0.00 0.00 0.00 99 1020.0
20260906053004 13 341 1.6 1.6 0.00 0.00 0.00 99 1020.0
20260906052004 13 348 1.6 1.6 0.00 0.00 0.00 99 1019.5
20260906051003 13 352 1.6 1.6 0.00 0.00 0.00 99 1019.6
20260906050003 13 358 1.6 1.6 0.00 0.00 0.00 99 1019.6
20260906045004 13 358 0.0 1.6 0.00 0.00 0.00 99 1019.8
20260906044003 13 37 1.6 1.6 0.00 0.00 0.00 99 1019.6
20260906043003 13 342 1.6 3.2 0.00 0.00 0.00 99 1019.6
20260906042004 14 31 1.6 3.2 0.00 0.00 0.00 99 1019.6
20260906041003 13 357 1.6 1.6 0.00 0.00 0.00 99 1019.4
20260906040004 14 351 0.0 1.6 0.00 0.00 0.00 99 1019.5
20260906035003 14 0 0.0 1.6 0.00 0.00 0.00 99 1019.5
20260906033004 14 6 0.0 1.6 0.00 0.00 0.00 99 1019.5
20260906032004 15 356 1.6 3.2 0.00 0.00 0.00 99 1019.3
20260906031003 15 339 1.6 1.6 0.00 0.00 0.00 99 1019.3
20260906030004 15 336 0.0 1.6 0.00 0.00 0.00 99 1019.3
20260906025003 15 1 1.6 1.6 0.00 0.00 0.00 98 1019.1
20260906024004 15 327 0.0 1.6 0.00 0.00 0.00 98 1019.2
20260906022004 16 17 1.6 1.6 0.00 0.00 0.00 97 1019.1
20260906020004 16 357 1.6 3.2 0.00 0.00 0.00 96 1019.0
20260906015004 16 325 0.0 3.2 0.00 0.00 0.00 95 1018.9
20260906012004 17 322 1.6 3.2 0.00 0.00 0.00 92 1018.6
20260906011003 17 330 1.6 1.6 0.00 0.00 0.00 91 1018.5
20260906010004 18 22 0.0 1.6 0.00 0.00 0.00 89 1018.3
20260906005004 18 35 0.0 1.6 0.00 0.00 0.00 88 1018.4
20260906004004 19 7 0.0 1.6 0.00 0.00 0.00 86 1018.3
20260906003003 20 36 0.0 1.6 0.00 0.00 0.00 84 1018.4
20260906002003 20 352 0.0 1.6 0.00 0.00 0.00 82 1018.3
20260906001004 21 11 0.0 1.6 0.00 0.00 0.00 78 1018.3
20260906000004 21 350 1.6 3.2 0.00 0.00 0.00 75 1018.2
20260905235004 22 8 1.6 3.2 0.00 0.00 0.00 73 1018.2
20260905234004 22 3 1.6 4.8 0.00 0.00 0.00 71 1018.2
20260905233003 23 309 1.6 3.2 0.00 0.00 0.00 69 1018.1
20260905232004 23 77 1.6 4.8 0.00 0.03 0.00 68 1018.3
20260905231004 23 47 1.6 4.8 0.00 0.05 0.00 66 1018.4
20260905225004 24 74 3.2 9.7 0.00 0.10 0.00 66 1018.4
20260905224004 25 99 3.2 8.0 0.00 0.10 0.00 65 1018.1
20260905223004 25 77 1.6 4.8 0.00 0.10 0.00 66 1018.2
20260905222003 25 36 1.6 1.6 0.00 0.10 0.00 66 1018.3
20260905221004 25 55 1.6 3.2 0.00 0.10 0.00 64 1018.2
20260905220004 25 107 0.0 3.2 0.00 0.10 0.00 63 1018.2
20260905214004 25 93 3.2 4.8 0.00 0.10 0.00 62 1018.1
20260905213004 25 24 1.6 3.2 0.00 0.10 0.00 62 1018.0
20260905212004 25 93 1.6 8.0 0.00 0.10 0.00 61 1018.0
20260905211004 26 135 3.2 8.0 0.00 0.10 0.00 57 1018.0
20260905205004 26 121 3.2 4.8 0.00 0.10 0.00 60 1018.0
20260905203004 26 36 1.6 8.0 0.00 0.10 0.00 60 1018.0
20260905202004 25 306 1.6 4.8 0.00 0.10 0.00 64 1018.2
20260905201004 26 214 0.0 4.8 0.00 0.10 0.00 60 1018.1
20260905200003 26 344 1.6 4.8 0.00 0.10 0.00 62 1018.2
20260905195004 27 346 1.6 4.8 0.00 0.10 0.00 59 1018.1
20260905194004 26 106 3.2 9.7 0.00 0.10 0.00 62 1018.3
20260905193003 26 0 3.2 8.0 0.00 0.10 0.00 63 1018.2
20260905192004 25 7 1.6 4.8 0.00 0.10 0.00 63 1018.1
20260905190004 25 346 1.6 8.0 0.00 0.10 0.00 64 1018.3
20260905185003 25 346 3.2 8.0 0.00 0.10 0.00 64 1018.2
20260905184004 26 277 1.6 8.0 0.00 0.10 0.00 64 1018.5
20260905183004 26 27 3.2 4.8 0.00 0.10 0.00 65 1018.5
20260905182004 24 1 1.6 4.8 0.00 0.10 0.00 70 1018.4
20260905181004 26 339 1.6 8.0 0.00 0.10 0.00 67 1018.3
20260905180004 25 329 1.6 9.7 0.00 0.10 0.00 70 1018.5
20260905175004 25 91 3.2 11.3 0.00 0.10 0.00 68 1018.4
20260905174004 25 359 3.2 4.8 0.00 0.10 0.00 68 1018.5
20260905172004 24 66 1.6 9.7 0.00 0.10 0.00 71 1018.8
20260905171004 24 7 3.2 8.0 0.00 0.10 0.00 70 1019.1
20260905170004 24 283 3.2 8.0 0.00 0.10 0.00 71 1019.1
20260905165004 23 122 3.2 8.0 0.00 0.10 0.00 72 1019.1
20260905164004 23 118 3.2 11.3 0.00 0.10 0.00 72 1019.2
20260905163004 23 351 3.2 4.8 0.00 0.10 0.00 74 1019.3
20260905162004 23 180 3.2 8.0 0.00 0.10 0.00 73 1019.1
20260905161004 24 92 1.6 8.0 0.00 0.10 0.00 72 1019.2
20260905160004 23 359 3.2 12.9 0.00 0.10 0.00 75 1019.2
20260905155004 23 163 3.2 8.0 0.00 0.10 0.00 76 1019.0
20260905154004 23 0 3.2 4.8 0.00 0.10 0.00 76 1018.9
20260905153004 22 337 1.6 8.0 0.00 0.10 0.00 77 1018.9
20260905152004 22 23 1.6 4.8 0.00 0.10 0.00 77 1018.9
20260905151003 22 23 3.2 8.0 0.00 0.10 0.00 81 1018.7
20260905150004 22 333 3.2 4.8 0.00 0.10 0.00 83 1018.5
20260905144004 21 58 1.6 4.8 0.00 0.10 0.00 84 1018.8
20260905143004 20 46 3.2 4.8 0.00 0.10 0.00 87 1018.8
20260905142004 19 19 1.6 3.2 0.00 0.10 0.00 89 1019.0
20260905140004 20 8 3.2 4.8 0.00 0.10 0.00 86 1019.0
20260905135004 20 26 1.6 3.2 0.00 0.10 0.00 86 1019.0
20260905134004 20 3 1.6 4.8 0.00 0.10 0.00 86 1018.8